sat.trackr.live / text

‹ back to catalog

NINGXIA-1 10

NORAD 49022 · 2021-064E

PAYLOAD ACTIVE UNKNOWN

§ Identity

Operator
Country
PRC
Launch date
2021-07-09
Launch site
TAISC
Launch vehicle
Mass (kg)
RCS (m²)

External: N2YO · Heavens-Above · Gunter

§ Orbital elements

Epoch: 2026-09-09T04:42:09.531360Z

Period
102.23 min
Inclination
44.9978°
Eccentricity
0.0009261
Mean motion
14.08560946 rev/d
Perigee alt
857.6 km
Apogee alt
871.0 km
Semi-major
7,242.4 km
B*
-8.4865e-5
RAAN
206.8975°
Arg perigee
300.8811°
Mean anomaly
59.1115°
Rev number
26,607

§ Raw data

NINGXIA-1 101 49022U 21064E   26252.19594365 -.00000279  00000+0 -84865-4 0  99932 49022  44.9978 206.8975 0009261 300.8811  59.1115 14.08560946266072

JSON: /api/v1/satellites/49022 · /tle

For live sub-satellite position, see the globe view (requires WebGL).

§ Visibility from observer

Set your observer location to see the next 7 days of passes ≥ 10°. The values pass through the URL so the page stays shareable.

No JS? Fill the form by hand. The geolocation button needs JavaScript.